Check out our new BloomSky Weather System.

Active alerts

Houston, TX
  Details for Houston, TX Dense Fog Advisory


Thunder radar  blitzortung!


Rain radar more information rain snow radar


Visit our other weather sites:

Template documentation
and downloads

And another site



Weather Underground History page Text

Daily Summary for March 18, 2017 Units:  Metric    English   Both
« Previous Day
Next Day »
Daily Weekly Monthly Yearly Custom
  High: Low: Average:
Temperature: 29.7 °C 15.4 °C 22.1 °C
Dew Point: 21.8 °C 15 °C 18.4 °C
Humidity: 99 % 50 % 82 %
Wind Speed: 12.9 km/h 0 km/h 2.6 km/h
Wind Gust: 20.9 km/h - -
Wind:- - SSE
Pressure: 1026.3 hPa 1021.9 hPa -
Precipitation: 0 mm    
Historical Graphs
 
 
Tabular Data for March 18, 2017
Time Temperature Dew Point Pressure Wind Wind Speed Wind Gust Humidity Rainfall Rate (Hourly)
00:02 19.3 °C 17.4 °C 1022.9 hPa Calm   4.8 km/h 89 % 0 mm
00:07 19.1 °C 17.4 °C 1022.9 hPa Calm   3.2 km/h 90 % 0 mm
00:12 19.1 °C 17.6 °C 1022.9 hPa ESE 1.6 km/h 3.2 km/h 91 % 0 mm
00:17 19.1 °C 17.6 °C 1022.9 hPa SE 1.6 km/h 3.2 km/h 91 % 0 mm
00:23 19 °C 17.5 °C 1022.9 hPa Calm   3.2 km/h 91 % 0 mm
00:28 18.9 °C 17.4 °C 1022.9 hPa ESE 1.6 km/h 3.2 km/h 91 % 0 mm
00:33 18.9 °C 17.6 °C 1022.9 hPa Calm   3.2 km/h 92 % 0 mm
00:38 18.9 °C 17.6 °C 1022.9 hPa Calm   3.2 km/h 92 % 0 mm
00:43 18.8 °C 17.5 °C 1022.9 hPa ESE 1.6 km/h 3.2 km/h 92 % 0 mm
00:48 18.8 °C 17.5 °C 1022.9 hPa Calm   3.2 km/h 92 % 0 mm
00:53 18.8 °C 17.5 °C 1022.9 hPa ESE 1.6 km/h 3.2 km/h 92 % 0 mm
00:58 18.7 °C 17.5 °C 1022.9 hPa Calm   3.2 km/h 93 % 0 mm
01:03 18.7 °C 17.5 °C 1022.9 hPa Calm   3.2 km/h 93 % 0 mm
01:08 18.6 °C 17.4 °C 1022.9 hPa Calm   3.2 km/h 93 % 0 mm
01:13 18.4 °C 17.2 °C 1022.9 hPa Calm   1.6 km/h 93 % 0 mm
01:18 18.3 °C 17.1 °C 1022.9 hPa Calm   1.6 km/h 93 % 0 mm
01:23 18.3 °C 17.1 °C 1022.6 hPa Calm   1.6 km/h 93 % 0 mm
01:28 18.2 °C 17 °C 1022.9 hPa Calm   1.6 km/h 93 % 0 mm
01:38 17.9 °C 16.9 °C 1022.9 hPa Calm   1.6 km/h 94 % 0 mm
01:43 17.8 °C 16.8 °C 1022.9 hPa Calm   1.6 km/h 94 % 0 mm
01:48 17.7 °C 16.7 °C 1022.9 hPa Calm     94 % 0 mm
01:53 17.6 °C 16.6 °C 1022.9 hPa Calm     94 % 0 mm
01:58 17.5 °C 16.5 °C 1022.9 hPa Calm     94 % 0 mm
02:03 17.4 °C 16.4 °C 1022.9 hPa Calm     94 % 0 mm
02:08 17.4 °C 16.4 °C 1022.9 hPa Calm     94 % 0 mm
02:13 17.3 °C 16.3 °C 1022.9 hPa Calm     94 % 0 mm
02:18 17.2 °C 16.4 °C 1022.9 hPa Calm     95 % 0 mm
02:23 17.2 °C 16.4 °C 1022.9 hPa Calm     95 % 0 mm
02:28 17.2 °C 16.4 °C 1022.9 hPa Calm   1.6 km/h 95 % 0 mm
02:33 17.1 °C 16.3 °C 1022.9 hPa Calm   1.6 km/h 95 % 0 mm
02:38 17.1 °C 16.3 °C 1022.9 hPa Calm   1.6 km/h 95 % 0 mm
02:43 16.9 °C 16.1 °C 1022.9 hPa Calm     95 % 0 mm
02:48 16.9 °C 16.3 °C 1022.9 hPa Calm   1.6 km/h 96 % 0 mm
02:53 16.8 °C 16.2 °C 1022.9 hPa Calm   1.6 km/h 96 % 0 mm
02:58 16.7 °C 16.1 °C 1022.9 hPa Calm   1.6 km/h 96 % 0 mm
03:03 16.7 °C 16.1 °C 1023.2 hPa Calm     96 % 0 mm
03:08 16.6 °C 16 °C 1023.2 hPa Calm   1.6 km/h 96 % 0 mm
03:13 16.6 °C 16 °C 1022.9 hPa Calm   1.6 km/h 96 % 0 mm
03:18 16.5 °C 15.9 °C 1022.9 hPa Calm   1.6 km/h 96 % 0 mm
03:23 16.4 °C 15.8 °C 1022.9 hPa Calm   1.6 km/h 96 % 0 mm
03:28 16.4 °C 15.8 °C 1022.9 hPa Calm   1.6 km/h 96 % 0 mm
03:33 16.4 °C 15.9 °C 1022.9 hPa Calm   1.6 km/h 97 % 0 mm
03:38 16.3 °C 15.8 °C 1022.9 hPa Calm     97 % 0 mm
03:43 16.3 °C 15.8 °C 1022.9 hPa Calm   1.6 km/h 97 % 0 mm
03:48 16.3 °C 15.8 °C 1022.9 hPa Calm   1.6 km/h 97 % 0 mm
03:53 16.3 °C 15.8 °C 1022.9 hPa Calm   1.6 km/h 97 % 0 mm
03:58 16.2 °C 15.7 °C 1022.9 hPa Calm     97 % 0 mm
04:03 16.1 °C 15.6 °C 1022.9 hPa Calm     97 % 0 mm
04:08 16 °C 15.4 °C 1022.9 hPa Calm     96 % 0 mm
04:13 15.9 °C 15.4 °C 1022.9 hPa Calm     97 % 0 mm
04:14 15.9 °C 15.4 °C 1022.9 hPa Calm     97 % 0 mm
04:19 16 °C 15.5 °C 1022.9 hPa Calm     97 % 0 mm
04:24 15.9 °C 15.4 °C 1022.9 hPa Calm     97 % 0 mm
04:29 15.8 °C 15.3 °C 1023.2 hPa Calm     97 % 0 mm
04:34 15.8 °C 15.3 °C 1023.2 hPa Calm     97 % 0 mm
04:39 15.8 °C 15.3 °C 1023.2 hPa Calm   1.6 km/h 97 % 0 mm
04:44 15.7 °C 15.2 °C 1023.2 hPa Calm   1.6 km/h 97 % 0 mm
04:49 15.6 °C 15.1 °C 1023.2 hPa Calm   1.6 km/h 97 % 0 mm
04:54 15.7 °C 15.2 °C 1023.2 hPa Calm     97 % 0 mm
04:59 15.7 °C 15.2 °C 1023.2 hPa Calm     97 % 0 mm
05:04 15.7 °C 15.2 °C 1023.2 hPa Calm     97 % 0 mm
05:09 15.7 °C 15.2 °C 1023.2 hPa Calm     97 % 0 mm
05:14 15.6 °C 15.1 °C 1023.6 hPa Calm     97 % 0 mm
05:19 15.5 °C 15 °C 1023.6 hPa Calm     97 % 0 mm
05:24 15.5 °C 15.2 °C 1023.6 hPa Calm     98 % 0 mm
05:29 15.6 °C 15.3 °C 1023.6 hPa Calm     98 % 0 mm
05:34 15.5 °C 15.2 °C 1023.6 hPa Calm     98 % 0 mm
05:39 15.5 °C 15 °C 1023.6 hPa Calm     97 % 0 mm
05:44 15.4 °C 15.1 °C 1023.6 hPa Calm     98 % 0 mm
05:49 15.6 °C 15.3 °C 1023.6 hPa Calm     98 % 0 mm
05:54 15.6 °C 15.3 °C 1023.6 hPa Calm     98 % 0 mm
05:59 15.6 °C 15.3 °C 1023.6 hPa Calm     98 % 0 mm
06:04 15.7 °C 15.4 °C 1023.9 hPa Calm     98 % 0 mm
06:09 15.7 °C 15.4 °C 1023.9 hPa Calm   1.6 km/h 98 % 0 mm
06:14 15.8 °C 15.5 °C 1023.9 hPa Calm   1.6 km/h 98 % 0 mm
06:19 15.9 °C 15.6 °C 1023.9 hPa Calm   1.6 km/h 98 % 0 mm
06:24 16 °C 15.7 °C 1023.9 hPa Calm   1.6 km/h 98 % 0 mm
06:29 16.1 °C 15.8 °C 1023.9 hPa Calm   1.6 km/h 98 % 0 mm
06:34 16.2 °C 15.9 °C 1023.6 hPa SE 1.6 km/h 1.6 km/h 98 % 0 mm
06:39 16.2 °C 15.9 °C 1023.6 hPa ESE 1.6 km/h 1.6 km/h 98 % 0 mm
06:44 16.2 °C 15.9 °C 1023.6 hPa Calm   1.6 km/h 98 % 0 mm
06:49 16.2 °C 15.9 °C 1023.9 hPa SE 1.6 km/h 1.6 km/h 98 % 0 mm
06:54 16.1 °C 15.8 °C 1023.9 hPa Calm   1.6 km/h 98 % 0 mm
06:59 16 °C 15.7 °C 1023.9 hPa Calm   1.6 km/h 98 % 0 mm
07:04 15.9 °C 15.6 °C 1024.3 hPa Calm   1.6 km/h 98 % 0 mm
07:09 15.9 °C 15.6 °C 1024.3 hPa Calm   1.6 km/h 98 % 0 mm
07:14 15.9 °C 15.6 °C 1024.3 hPa Calm   1.6 km/h 98 % 0 mm
07:19 15.9 °C 15.6 °C 1024.3 hPa Calm   1.6 km/h 98 % 0 mm
07:24 16 °C 15.7 °C 1024.3 hPa Calm   1.6 km/h 98 % 0 mm
07:29 16.1 °C 15.8 °C 1024.3 hPa Calm   1.6 km/h 98 % 0 mm
07:34 16.2 °C 15.9 °C 1024.6 hPa Calm   1.6 km/h 98 % 0 mm
07:39 16.2 °C 15.9 °C 1024.6 hPa Calm   1.6 km/h 98 % 0 mm
07:44 16.3 °C 16 °C 1024.9 hPa Calm   1.6 km/h 98 % 0 mm
07:49 16.4 °C 16.1 °C 1024.9 hPa Calm   1.6 km/h 98 % 0 mm
07:54 16.4 °C 16.1 °C 1024.9 hPa Calm   1.6 km/h 98 % 0 mm
07:59 16.6 °C 16.4 °C 1024.9 hPa Calm   1.6 km/h 99 % 0 mm
08:04 16.7 °C 16.5 °C 1024.9 hPa Calm   3.2 km/h 99 % 0 mm
08:09 16.7 °C 16.5 °C 1024.9 hPa Calm   3.2 km/h 99 % 0 mm
08:14 16.8 °C 16.6 °C 1024.9 hPa NE 3.2 km/h 3.2 km/h 99 % 0 mm
08:19 16.8 °C 16.5 °C 1024.9 hPa Calm   3.2 km/h 98 % 0 mm
08:24 16.8 °C 16.5 °C 1024.9 hPa Calm   3.2 km/h 98 % 0 mm
08:25 16.8 °C 16.6 °C 1024.9 hPa Calm   3.2 km/h 99 % 0 mm
08:30 16.9 °C 16.7 °C 1024.9 hPa Calm   3.2 km/h 99 % 0 mm
08:35 16.9 °C 16.7 °C 1024.9 hPa Calm   3.2 km/h 99 % 0 mm
08:45 17.2 °C 17 °C 1024.9 hPa Calm   3.2 km/h 99 % 0 mm
08:50 17.3 °C 17.1 °C 1025.3 hPa Calm   3.2 km/h 99 % 0 mm
08:55 17.4 °C 17.2 °C 1025.3 hPa Calm   3.2 km/h 99 % 0 mm
09:00 17.5 °C 17.3 °C 1025.3 hPa Calm   3.2 km/h 99 % 0 mm
09:05 17.7 °C 17.5 °C 1025.6 hPa NNE 1.6 km/h 3.2 km/h 99 % 0 mm
09:10 17.8 °C 17.6 °C 1025.6 hPa Calm   3.2 km/h 99 % 0 mm
09:15 17.9 °C 17.7 °C 1025.6 hPa Calm   3.2 km/h 99 % 0 mm
09:20 18.1 °C 17.9 °C 1025.6 hPa North 1.6 km/h 3.2 km/h 99 % 0 mm
09:25 18.2 °C 18 °C 1025.6 hPa ENE 1.6 km/h 3.2 km/h 99 % 0 mm
09:30 18.2 °C 18 °C 1026 hPa Calm   3.2 km/h 99 % 0 mm
09:35 18.3 °C 18.1 °C 1026 hPa Calm   3.2 km/h 99 % 0 mm
09:40 18.4 °C 18.2 °C 1026 hPa NE 3.2 km/h 3.2 km/h 99 % 0 mm
09:50 18.7 °C 18.5 °C 1026 hPa Calm   4.8 km/h 99 % 0 mm
09:55 18.8 °C 18.6 °C 1026 hPa ENE 1.6 km/h 4.8 km/h 99 % 0 mm
10:00 18.9 °C 18.7 °C 1026 hPa ESE 1.6 km/h 4.8 km/h 99 % 0 mm
10:05 19.1 °C 18.9 °C 1026 hPa Calm   4.8 km/h 99 % 0 mm
10:10 19.2 °C 19 °C 1026 hPa ENE 1.6 km/h 4.8 km/h 99 % 0 mm
10:15 19.3 °C 19.1 °C 1026 hPa ESE 1.6 km/h 4.8 km/h 99 % 0 mm
10:20 19.8 °C 19.6 °C 1026.3 hPa East 6.4 km/h 6.4 km/h 99 % 0 mm
10:25 19.7 °C 19.4 °C 1026.3 hPa SE 1.6 km/h 6.4 km/h 98 % 0 mm
10:30 20 °C 19.8 °C 1026.3 hPa ENE 1.6 km/h 6.4 km/h 99 % 0 mm
10:35 20.3 °C 20.1 °C 1026.3 hPa Calm   6.4 km/h 99 % 0 mm
10:40 20.9 °C 20.7 °C 1026.3 hPa NE 1.6 km/h 4.8 km/h 99 % 0 mm
10:45 21.4 °C 21.2 °C 1026.3 hPa SE 3.2 km/h 4.8 km/h 99 % 0 mm
10:50 21.6 °C 21.3 °C 1026.3 hPa SSE 3.2 km/h 6.4 km/h 98 % 0 mm
10:55 21.7 °C 21.2 °C 1026.3 hPa SE 3.2 km/h 6.4 km/h 97 % 0 mm
11:00 21.7 °C 21 °C 1026.3 hPa North 1.6 km/h 6.4 km/h 96 % 0 mm
11:05 22.2 °C 21.5 °C 1026.3 hPa North 4.8 km/h 6.4 km/h 96 % 0 mm
11:10 22.6 °C 21.6 °C 1026.3 hPa SE 6.4 km/h 9.7 km/h 94 % 0 mm
11:15 22.9 °C 21.5 °C 1026.3 hPa SSW 3.2 km/h 9.7 km/h 92 % 0 mm
11:20 23.4 °C 21.7 °C 1026.3 hPa WSW 3.2 km/h 9.7 km/h 90 % 0 mm
11:25 23.9 °C 21.8 °C 1026.3 hPa ESE 6.4 km/h 9.7 km/h 88 % 0 mm
11:30 24.1 °C 21.2 °C 1026.3 hPa SE 3.2 km/h 9.7 km/h 84 % 0 mm
11:35 24.1 °C 21 °C 1026.3 hPa Calm   8 km/h 83 % 0 mm
11:40 24.5 °C 21.2 °C 1026.3 hPa WNW 3.2 km/h 8 km/h 82 % 0 mm
11:45 24.9 °C 21.4 °C 1026 hPa WNW 1.6 km/h 4.8 km/h 81 % 0 mm
11:55 25.5 °C 21.2 °C 1026 hPa ESE 8 km/h 12.9 km/h 77 % 0 mm
12:00 25.6 °C 21.1 °C 1026 hPa SSE 3.2 km/h 12.9 km/h 76 % 0 mm
12:05 25.8 °C 21.5 °C 1026 hPa SE 8 km/h 11.3 km/h 77 % 0 mm
12:10 25.6 °C 20.6 °C 1026 hPa SE 4.8 km/h 11.3 km/h 74 % 0 mm
12:15 25.6 °C 21.1 °C 1026 hPa ESE 4.8 km/h 11.3 km/h 76 % 0 mm
12:20 25.9 °C 21.3 °C 1026 hPa SW 3.2 km/h 11.3 km/h 76 % 0 mm
12:25 26.4 °C 21.4 °C 1025.6 hPa South 3.2 km/h 8 km/h 74 % 0 mm
12:30 26.6 °C 20.4 °C 1025.6 hPa SSW 9.7 km/h 9.7 km/h 69 % 0 mm
12:35 26.8 °C 20.9 °C 1026 hPa SE 6.4 km/h 12.9 km/h 70 % 0 mm
12:40 26.7 °C 20.5 °C 1025.6 hPa SSW 3.2 km/h 12.9 km/h 69 % 0 mm
12:45 27.1 °C 20.4 °C 1025.6 hPa Calm   12.9 km/h 67 % 0 mm
12:50 27.4 °C 20.2 °C 1025.6 hPa SE 4.8 km/h 9.7 km/h 65 % 0 mm
12:51 27.4 °C 20.2 °C 1025.6 hPa ESE 3.2 km/h 9.7 km/h 65 % 0 mm
12:56 27.6 °C 20.4 °C 1025.3 hPa SE 3.2 km/h 6.4 km/h 65 % 0 mm
13:01 27.9 °C 20.2 °C 1025.3 hPa SSE 1.6 km/h 6.4 km/h 63 % 0 mm
13:02 28 °C 20.3 °C 1025.3 hPa SSW 4.8 km/h 6.4 km/h 63 % 0 mm
13:07 27.6 °C 19.9 °C 1025.3 hPa SSE 4.8 km/h 9.7 km/h 63 % 0 mm
13:12 27.3 °C 19.4 °C 1025.3 hPa SW 4.8 km/h 9.7 km/h 62 % 0 mm
13:17 27.2 °C 19.5 °C 1025.3 hPa SW 3.2 km/h 11.3 km/h 63 % 0 mm
13:22 27.4 °C 20 °C 1024.9 hPa SW 3.2 km/h 11.3 km/h 64 % 0 mm
13:28 27.9 °C 20.2 °C 1024.9 hPa South 6.4 km/h 11.3 km/h 63 % 0 mm
13:33 28.2 °C 20 °C 1024.9 hPa Calm   9.7 km/h 61 % 0 mm
13:38 28.3 °C 19.8 °C 1024.9 hPa Calm   11.3 km/h 60 % 0 mm
13:43 28.6 °C 20.1 °C 1024.6 hPa Calm   11.3 km/h 60 % 0 mm
13:48 28.7 °C 18.8 °C 1024.6 hPa South 8 km/h 11.3 km/h 55 % 0 mm
13:53 28.7 °C 19.3 °C 1024.6 hPa Calm   11.3 km/h 57 % 0 mm
13:58 29 °C 19.6 °C 1024.3 hPa North 3.2 km/h 11.3 km/h 57 % 0 mm
14:03 29.2 °C 19.2 °C 1024.3 hPa ESE 9.7 km/h 9.7 km/h 55 % 0 mm
14:08 28.8 °C 19.1 °C 1024.3 hPa WSW 3.2 km/h 11.3 km/h 56 % 0 mm
14:13 28.7 °C 19.3 °C 1024.3 hPa ESE 1.6 km/h 11.3 km/h 57 % 0 mm
14:18 28.6 °C 20.1 °C 1024.3 hPa ESE 3.2 km/h 11.3 km/h 60 % 0 mm
14:23 28.9 °C 20.6 °C 1023.9 hPa SSE 3.2 km/h 11.3 km/h 61 % 0 mm
14:28 28.9 °C 19.2 °C 1023.9 hPa SW 1.6 km/h 8 km/h 56 % 0 mm
14:33 28.9 °C 20.1 °C 1023.9 hPa WSW 3.2 km/h 8 km/h 59 % 0 mm
14:38 28.4 °C 19.9 °C 1023.9 hPa West 3.2 km/h 8 km/h 60 % 0 mm
14:43 28.1 °C 19.3 °C 1023.6 hPa West 3.2 km/h 8 km/h 59 % 0 mm
14:48 27.9 °C 19.9 °C 1023.6 hPa NE 1.6 km/h 8 km/h 62 % 0 mm
14:53 27.8 °C 19.6 °C 1023.2 hPa SE 4.8 km/h 6.4 km/h 61 % 0 mm
14:58 27.8 °C 20.4 °C 1023.2 hPa East 3.2 km/h 8 km/h 64 % 0 mm
15:03 28.1 °C 19.6 °C 1023.2 hPa Calm   8 km/h 60 % 0 mm
15:08 28.3 °C 20.3 °C 1023.2 hPa WSW 4.8 km/h 12.9 km/h 62 % 0 mm
15:14 28.7 °C 19.9 °C 1023.2 hPa WSW 4.8 km/h 12.9 km/h 59 % 0 mm
15:19 28.9 °C 20.1 °C 1022.9 hPa NW 4.8 km/h 12.9 km/h 59 % 0 mm
15:24 28.7 °C 19.3 °C 1022.9 hPa SW 3.2 km/h 9.7 km/h 57 % 0 mm
15:29 28.7 °C 19.9 °C 1022.9 hPa SSE 1.6 km/h 9.7 km/h 59 % 0 mm
15:34 28.9 °C 19.2 °C 1022.9 hPa SSW 6.4 km/h 9.7 km/h 56 % 0 mm
15:39 29.1 °C 19.1 °C 1022.9 hPa SSW 6.4 km/h 11.3 km/h 55 % 0 mm
15:44 28.7 °C 18.8 °C 1022.6 hPa SE 3.2 km/h 11.3 km/h 55 % 0 mm
15:49 28.9 °C 19 °C 1022.6 hPa Calm   11.3 km/h 55 % 0 mm
15:54 29.4 °C 19.1 °C 1022.6 hPa SSW 4.8 km/h 11.3 km/h 54 % 0 mm
15:59 29.6 °C 19.3 °C 1022.6 hPa West 3.2 km/h 11.3 km/h 54 % 0 mm
16:04 29.6 °C 19 °C 1022.6 hPa SSE 1.6 km/h 11.3 km/h 53 % 0 mm
16:09 29.1 °C 17.9 °C 1022.6 hPa South 4.8 km/h 14.5 km/h 51 % 0 mm
16:14 28.8 °C 18.9 °C 1022.6 hPa South 6.4 km/h 14.5 km/h 55 % 0 mm
16:19 29 °C 19 °C 1022.6 hPa Calm   14.5 km/h 55 % 0 mm
16:24 29.2 °C 19.5 °C 1022.6 hPa SW 4.8 km/h 9.7 km/h 56 % 0 mm
16:29 29.3 °C 19 °C 1022.2 hPa South 3.2 km/h 14.5 km/h 54 % 0 mm
16:34 29.2 °C 18.9 °C 1022.2 hPa SW 3.2 km/h 14.5 km/h 54 % 0 mm
16:39 29.3 °C 18.4 °C 1022.2 hPa SSW 1.6 km/h 14.5 km/h 52 % 0 mm
16:44 29.7 °C 19.1 °C 1022.2 hPa South 3.2 km/h 11.3 km/h 53 % 0 mm
16:49 29.7 °C 18.2 °C 1022.2 hPa SE 4.8 km/h 11.3 km/h 50 % 0 mm
16:54 29.4 °C 17.9 °C 1022.2 hPa SSE 3.2 km/h 14.5 km/h 50 % 0 mm
16:59 29.3 °C 18.1 °C 1022.2 hPa SSE 4.8 km/h 14.5 km/h 51 % 0 mm
17:04 29 °C 17.8 °C 1022.2 hPa SE 1.6 km/h 14.5 km/h 51 % 0 mm
17:09 29.1 °C 19.1 °C 1022.2 hPa ESE 3.2 km/h 11.3 km/h 55 % 0 mm
17:14 29.2 °C 18 °C 1022.2 hPa SW 3.2 km/h 9.7 km/h 51 % 0 mm
17:19 29.3 °C 18.4 °C 1022.2 hPa SSE 4.8 km/h 11.3 km/h 52 % 0 mm
17:24 29.3 °C 17.8 °C 1021.9 hPa Calm   11.3 km/h 50 % 0 mm
17:29 29.2 °C 17.7 °C 1021.9 hPa SE 6.4 km/h 11.3 km/h 50 % 0 mm
17:34 28.7 °C 19.9 °C 1022.2 hPa East 6.4 km/h 9.7 km/h 59 % 0 mm
17:39 28.1 °C 20.4 °C 1021.9 hPa SSE 9.7 km/h 19.3 km/h 63 % 0 mm
17:44 27.9 °C 20.2 °C 1021.9 hPa SE 6.4 km/h 20.9 km/h 63 % 0 mm
17:49 27.6 °C 20.4 °C 1021.9 hPa SE 8 km/h 20.9 km/h 65 % 0 mm
17:54 27.4 °C 20.5 °C 1021.9 hPa SE 6.4 km/h 20.9 km/h 66 % 0 mm
17:59 27.3 °C 20.6 °C 1021.9 hPa SSE 6.4 km/h 20.9 km/h 67 % 0 mm
18:04 27.4 °C 20.7 °C 1022.2 hPa ESE 6.4 km/h 20.9 km/h 67 % 0 mm
18:09 27.3 °C 20.6 °C 1022.2 hPa SE 8 km/h 16.1 km/h 67 % 0 mm
18:19 27.1 °C 20.7 °C 1022.2 hPa SE 8 km/h 14.5 km/h 68 % 0 mm
18:24 27.1 °C 20.7 °C 1022.2 hPa ESE 9.7 km/h 14.5 km/h 68 % 0 mm
18:29 26.9 °C 20.7 °C 1022.2 hPa SSE 11.3 km/h 14.5 km/h 69 % 0 mm
18:34 26.6 °C 20.4 °C 1022.2 hPa ESE 12.9 km/h 16.1 km/h 69 % 0 mm
18:39 26.4 °C 20.5 °C 1022.2 hPa East 9.7 km/h 17.7 km/h 70 % 0 mm
18:44 26.3 °C 20.6 °C 1022.2 hPa SSE 3.2 km/h 17.7 km/h 71 % 0 mm
18:49 26.2 °C 20.5 °C 1022.2 hPa East 6.4 km/h 17.7 km/h 71 % 0 mm
18:54 26.1 °C 20.4 °C 1022.2 hPa SSE 6.4 km/h 12.9 km/h 71 % 0 mm
18:59 25.9 °C 20.5 °C 1022.2 hPa ESE 8 km/h 11.3 km/h 72 % 0 mm
19:04 25.8 °C 20.4 °C 1022.6 hPa ESE 8 km/h 11.3 km/h 72 % 0 mm
19:09 25.7 °C 20.5 °C 1022.6 hPa SE 6.4 km/h 11.3 km/h 73 % 0 mm
19:14 25.6 °C 20.4 °C 1022.6 hPa ESE 3.2 km/h 14.5 km/h 73 % 0 mm
19:19 25.5 °C 20.5 °C 1022.6 hPa ESE 4.8 km/h 14.5 km/h 74 % 0 mm
19:24 25.5 °C 20.5 °C 1022.6 hPa SSE 4.8 km/h 14.5 km/h 74 % 0 mm
19:29 25.5 °C 20.5 °C 1022.6 hPa SSE 9.7 km/h 11.3 km/h 74 % 0 mm
19:34 25.6 °C 20.6 °C 1022.6 hPa SSE 3.2 km/h 14.5 km/h 74 % 0 mm
19:39 25.4 °C 20.6 °C 1022.6 hPa SSE 8 km/h 14.5 km/h 75 % 0 mm
19:44 25.4 °C 20.6 °C 1022.6 hPa SE 6.4 km/h 14.5 km/h 75 % 0 mm
19:49 25.2 °C 20.7 °C 1022.6 hPa SSW 4.8 km/h 14.5 km/h 76 % 0 mm
19:54 25.2 °C 20.7 °C 1022.6 hPa SSW 4.8 km/h 16.1 km/h 76 % 0 mm
19:59 25.1 °C 20.6 °C 1022.6 hPa SSE 3.2 km/h 16.1 km/h 76 % 0 mm
20:04 25.1 °C 20.6 °C 1022.6 hPa SE 9.7 km/h 16.1 km/h 76 % 0 mm
20:09 25 °C 20.5 °C 1022.6 hPa South 8 km/h 16.1 km/h 76 % 0 mm
20:15 24.9 °C 20.4 °C 1022.6 hPa SE 4.8 km/h 16.1 km/h 76 % 0 mm
20:20 24.9 °C 20.4 °C 1022.6 hPa ESE 4.8 km/h 12.9 km/h 76 % 0 mm
20:25 24.8 °C 20.3 °C 1022.6 hPa ESE 4.8 km/h 12.9 km/h 76 % 0 mm
20:30 24.7 °C 20.4 °C 1022.9 hPa SSW 4.8 km/h 12.9 km/h 77 % 0 mm
20:35 24.6 °C 20.3 °C 1022.9 hPa ESE 4.8 km/h 9.7 km/h 77 % 0 mm
20:40 24.5 °C 20.2 °C 1022.9 hPa ESE 3.2 km/h 9.7 km/h 77 % 0 mm
20:45 24.4 °C 20.3 °C 1022.9 hPa ESE 3.2 km/h 9.7 km/h 78 % 0 mm
20:50 24.3 °C 20.2 °C 1022.9 hPa ESE 3.2 km/h 9.7 km/h 78 % 0 mm
20:55 24.3 °C 20.2 °C 1022.9 hPa ESE 8 km/h 11.3 km/h 78 % 0 mm
21:00 24.3 °C 20.2 °C 1022.9 hPa South 4.8 km/h 12.9 km/h 78 % 0 mm
21:05 24.2 °C 20.1 °C 1022.9 hPa SE 4.8 km/h 12.9 km/h 78 % 0 mm
21:10 24.1 °C 20.2 °C 1022.9 hPa SSE 6.4 km/h 11.3 km/h 79 % 0 mm
21:15 24 °C 20.1 °C 1023.2 hPa SSE 6.4 km/h 9.7 km/h 79 % 0 mm
21:20 23.9 °C 20 °C 1023.2 hPa SE 3.2 km/h 11.3 km/h 79 % 0 mm
21:25 23.8 °C 20.1 °C 1023.2 hPa SSE 4.8 km/h 11.3 km/h 80 % 0 mm
21:30 23.7 °C 20 °C 1023.2 hPa South 4.8 km/h 11.3 km/h 80 % 0 mm
21:35 23.6 °C 19.9 °C 1023.2 hPa SW 8 km/h 11.3 km/h 80 % 0 mm
21:40 23.6 °C 19.9 °C 1023.2 hPa SSW 3.2 km/h 11.3 km/h 80 % 0 mm
21:45 23.4 °C 19.8 °C 1023.2 hPa SSE 9.7 km/h 11.3 km/h 80 % 0 mm
21:50 23.4 °C 20 °C 1023.6 hPa SSE 6.4 km/h 11.3 km/h 81 % 0 mm
21:55 23.3 °C 19.9 °C 1023.6 hPa South 8 km/h 11.3 km/h 81 % 0 mm
22:00 23.3 °C 19.9 °C 1023.6 hPa South 4.8 km/h 11.3 km/h 81 % 0 mm
22:05 23.3 °C 19.9 °C 1023.6 hPa South 6.4 km/h 9.7 km/h 81 % 0 mm
22:10 23.2 °C 19.8 °C 1023.6 hPa South 4.8 km/h 9.7 km/h 81 % 0 mm
22:15 23.2 °C 20 °C 1023.6 hPa SE 4.8 km/h 11.3 km/h 82 % 0 mm
22:20 23.1 °C 19.9 °C 1023.6 hPa SSE 4.8 km/h 11.3 km/h 82 % 0 mm
22:25 23.1 °C 19.9 °C 1023.6 hPa South 4.8 km/h 11.3 km/h 82 % 0 mm
22:30 23 °C 19.8 °C 1023.9 hPa SSW 3.2 km/h 11.3 km/h 82 % 0 mm
22:35 22.9 °C 19.9 °C 1023.9 hPa South 3.2 km/h 9.7 km/h 83 % 0 mm
22:40 22.8 °C 19.8 °C 1023.9 hPa South 3.2 km/h 8 km/h 83 % 0 mm
22:45 22.7 °C 19.7 °C 1023.9 hPa SSE 9.7 km/h 9.7 km/h 83 % 0 mm
22:50 22.7 °C 19.9 °C 1023.9 hPa SSW 3.2 km/h 9.7 km/h 84 % 0 mm
22:55 22.6 °C 19.8 °C 1023.9 hPa SSW 4.8 km/h 9.7 km/h 84 % 0 mm
23:00 22.4 °C 19.6 °C 1023.9 hPa South 6.4 km/h 11.3 km/h 84 % 0 mm
23:05 22.3 °C 19.7 °C 1023.9 hPa SE 3.2 km/h 11.3 km/h 85 % 0 mm
23:10 22.2 °C 19.6 °C 1023.9 hPa SW 1.6 km/h 11.3 km/h 85 % 0 mm
23:15 22.1 °C 19.5 °C 1023.9 hPa South 1.6 km/h 6.4 km/h 85 % 0 mm
23:20 21.9 °C 19.5 °C 1023.9 hPa South 1.6 km/h 6.4 km/h 86 % 0 mm
23:25 21.8 °C 19.5 °C 1023.9 hPa SSE 1.6 km/h 4.8 km/h 87 % 0 mm
23:30 21.8 °C 19.5 °C 1023.9 hPa South 1.6 km/h 4.8 km/h 87 % 0 mm
23:35 21.7 °C 19.4 °C 1023.9 hPa South 1.6 km/h 4.8 km/h 87 % 0 mm
23:45 21.6 °C 19.5 °C 1023.9 hPa South 3.2 km/h 6.4 km/h 88 % 0 mm
23:50 21.5 °C 19.4 °C 1023.9 hPa ESE 1.6 km/h 6.4 km/h 88 % 0 mm
23:55 21.5 °C 19.4 °C 1023.9 hPa Calm   9.7 km/h 88 % 0 mm
Spring, Texas: Villages of Bridgestone
Compliments of Weather Underground - 2.75 mb

Script developed by  Jim McMurry - jmcmurry@mwt.net Adapted for the template by  Wim van der Kuil - Leuven-Template.eu

You find our weather info also at:

UK Metoffice

WeatherCloud

Weather Underground

Mid-South Weather Network

AWEKAS

Citizen Weather Observer Program (CWOP)

HAMweather, WeatherForYou, PWS Weather

Equipment we use:

Weather-station
Davis Vantage Vue

Weather-program
Meteohub

Weather-server
Debian 7.9 x86 (Guest)

Provider
DreamHost

Davis Vantage Vue

Meteohub

Debian 7.9 x86 (Guest)

DreamHost